Theta_e
303 302 302 302 303 302 302 302 301 301 301 302 306 307 307 310 310 310 311 312 313 313 310 314 315 315 313 317 317 318 321 322 323 324 326 328 333 333 333 333 334 341 349 356 355
302 302 302 302 302 303 303 303 302 302 301 301 301 305 307 309 311 311 310 310 311 311 312 314 318 316 313 316 317 320 321 322 324 325 325 326 330 331 333 332 335 344 350 351 353
302 302 302 302 302 302 303 302 302 302 302 302 302 302 304 307 310 313 313 310 310 308 310 315 317 316 314 316 318 319 321 322 323 324 324 325 327 328 332 334 333 342 350 350 353
302 302 302 302 302 302 305 304 305 305 304 302 301 302 301 308 314 316 312 312 312 313 315 314 318 318 317 318 317 319 320 321 322 322 322 324 325 326 329 331 333 334 348 350 352
302 302 302 302 302 304 305 305 306 305 305 304 303 302 305 308 309 311 313 314 316 313 314 315 317 319 319 318 319 320 320 319 320 321 321 323 324 326 327 329 331 336 346 349 352
301 301 301 302 302 302 304 306 306 306 306 305 305 304 305 309 307 308 308 311 311 313 314 318 316 318 318 318 320 320 320 320 319 321 321 322 323 323 324 324 327 335 344 347 350
301 302 301 302 302 303 306 306 307 307 307 306 306 305 307 307 307 309 310 311 310 311 314 318 316 318 317 318 317 319 320 320 321 320 322 321 322 323 322 323 325 333 340 342 348
301 302 302 303 304 305 306 307 308 307 307 307 306 307 308 307 307 306 307 310 310 312 314 315 318 319 317 316 317 318 320 321 321 321 320 320 321 322 322 324 328 331 338 341 343
302 302 302 304 304 306 306 308 308 306 303 306 307 308 309 308 308 307 307 307 307 311 312 313 316 319 316 318 318 317 320 321 321 321 320 321 321 323 321 322 328 330 335 339 341
302 302 303 304 305 306 308 308 309 307 307 307 307 308 308 307 307 308 309 308 308 309 311 313 315 321 319 317 318 318 318 320 321 321 320 320 321 322 321 322 326 330 334 336 338
302 302 304 304 305 308 307 311 311 310 308 310 310 308 307 307 307 308 310 311 308 310 313 313 317 320 319 318 318 318 319 320 321 322 320 321 321 321 322 322 326 329 331 331 333
302 303 305 305 308 308 309 311 309 307 308 308 308 308 308 308 308 309 310 311 311 311 311 315 318 317 318 318 317 318 319 319 320 320 320 321 321 322 322 322 323 327 329 330 330
302 304 305 308 308 312 311 310 307 306 308 309 308 308 307 307 308 310 309 311 311 311 311 315 315 316 318 318 318 318 320 319 320 319 319 320 321 321 322 321 321 324 327 328 330
303 306 308 309 310 312 310 309 307 306 310 311 310 310 309 308 309 307 308 310 311 312 311 312 315 316 318 319 318 319 319 319 319 319 319 320 320 322 322 322 323 321 323 325 328
303 307 309 311 311 311 310 308 307 307 320 309 311 311 310 309 311 311 308 309 310 312 310 311 315 316 320 319 319 319 318 319 319 319 320 319 321 321 321 323 324 324 322 325 327
303 308 309 312 312 311 309 307 306 312 320 313 312 312 311 310 310 311 311 308 309 310 314 311 314 318 319 319 318 319 318 318 318 319 320 321 320 322 322 322 325 325 324 325 323
304 308 311 312 312 311 309 305 313 321 313 316 314 313 312 314 312 311 310 310 311 313 315 311 315 318 317 317 317 318 319 319 319 319 322 323 322 324 323 322 322 323 321 321 321
305 308 313 312 312 311 309 309 320 316 316 314 313 313 314 313 313 311 313 311 310 311 313 312 317 319 318 317 317 318 319 321 321 322 321 323 323 323 325 323 321 321 321 321 321
308 313 314 312 313 310 308 319 318 313 311 312 313 315 316 314 313 312 314 312 310 312 316 311 316 318 319 318 317 317 320 321 322 322 323 323 323 324 323 323 323 323 323 322 322
310 313 313 313 313 313 311 315 314 309 308 308 316 315 316 315 316 314 313 312 312 312 314 313 316 316 319 318 316 318 321 321 322 324 323 324 324 323 322 325 327 328 327 327 327
313 315 312 312 314 313 315 315 312 312 313 307 314 315 316 317 316 315 314 312 313 311 312 317 318 320 319 316 317 317 318 320 322 322 325 324 323 324 326 326 329 330 328 333 333
311 314 312 312 314 312 315 313 312 313 312 308 307 311 315 318 316 314 315 315 312 313 315 318 319 322 320 316 316 317 319 321 323 324 324 324 327 324 329 331 333 334 335 332 333
311 311 313 312 314 314 313 313 313 313 313 312 311 312 315 317 318 316 315 312 312 313 318 317 320 324 320 317 316 317 319 320 322 324 324 328 332 330 335 336 333 332 331 331 332
309 312 310 311 312 312 314 314 314 313 313 312 313 313 315 318 318 318 317 313 313 316 316 315 321 322 322 319 318 318 318 319 322 324 323 326 328 331 336 332 331 331 333 333 332
308 310 309 313 314 313 314 314 314 316 313 312 312 316 316 315 316 319 318 316 316 317 316 315 324 321 319 319 318 318 317 319 323 322 323 326 328 335 335 331 331 331 330 330 329
308 307 307 307 312 314 313 315 315 315 313 312 315 317 317 318 321 321 320 319 319 318 319 324 323 320 320 320 318 318 317 320 320 320 325 324 331 335 331 330 331 330 330 329 328
306 306 307 310 313 315 315 315 315 315 313 311 314 315 317 317 317 320 320 320 321 323 325 325 325 325 325 320 318 318 318 319 319 318 323 327 334 333 330 331 330 329 329 328 327
Wind_Speed
21 22 22 22 21 19 19 19 18 17 19 21 21 21 20 20 23 22 25 19 14 25 21 16 14 17 21 25 29 29 17 23 30 27 22 23 17 22 18 17 8 5 4 16 14
22 21 20 20 20 20 20 20 19 18 18 18 20 20 19 19 23 29 28 27 30 27 17 16 17 20 28 25 32 22 21 30 23 22 22 20 23 23 18 15 11 11 8 11 14
21 20 21 21 20 21 20 20 20 19 17 17 17 17 18 15 25 17 11 23 30 28 23 19 18 22 29 27 33 33 25 23 26 26 27 20 16 17 21 19 18 19 15 12 15
22 22 23 23 24 23 22 21 21 20 20 18 17 15 13 8 8 2 7 5 8 10 17 22 23 25 24 29 33 25 31 31 24 21 13 15 15 23 19 19 17 9 17 13 15
23 24 25 26 26 25 24 22 22 20 20 20 17 15 9 18 26 20 16 12 4 7 16 25 31 28 26 26 30 31 23 30 32 19 16 16 18 18 17 22 9 8 9 13 13
25 27 28 29 28 26 24 22 21 20 21 20 19 14 12 21 19 17 23 23 17 14 16 25 28 32 24 29 28 25 28 22 33 20 20 24 22 20 22 19 11 13 14 15 14
28 30 31 30 27 26 26 23 22 23 22 20 16 13 18 28 13 11 12 16 19 17 17 16 29 27 35 26 27 30 24 25 21 25 18 22 21 24 23 19 19 19 17 15 14
31 33 33 29 28 29 26 21 21 23 24 19 15 14 19 13 17 25 23 16 10 15 9 7 15 23 30 21 28 21 19 23 25 24 26 23 24 23 27 23 21 24 19 14 14
33 34 33 30 30 28 22 19 21 18 14 12 13 16 17 8 15 17 23 26 22 19 12 8 9 18 22 23 20 20 25 25 28 25 20 23 17 23 25 26 24 24 23 18 15
34 35 32 31 29 23 22 19 14 11 5 4 4 7 19 12 7 10 10 17 23 25 19 11 8 13 18 19 25 29 32 25 26 24 26 22 19 17 26 26 25 25 25 21 19
37 36 34 31 22 20 19 16 2 7 15 16 10 14 3 7 5 9 8 9 21 24 21 19 12 25 33 31 25 23 24 24 24 21 24 24 21 19 25 24 25 25 25 24 21
38 39 34 21 17 17 10 6 8 10 14 21 25 25 18 8 11 5 8 12 17 23 23 15 19 25 24 27 26 26 24 27 21 18 21 22 22 17 14 19 26 27 25 24 22
40 36 21 15 19 9 7 6 9 7 8 12 8 15 18 19 15 12 13 8 15 21 25 22 19 25 25 27 27 27 24 26 22 17 17 21 20 27 19 21 29 29 27 25 25
37 22 18 21 11 14 4 10 12 3 4 10 7 4 12 15 19 24 19 14 9 16 25 25 23 26 21 27 26 27 18 21 22 18 15 25 14 23 22 20 22 31 31 30 27
33 13 21 17 11 9 9 12 10 3 3 4 7 3 4 17 5 2 27 24 15 12 16 23 16 22 23 25 27 21 18 21 21 19 20 20 17 24 20 20 24 22 30 30 27
29 9 20 12 6 6 12 16 3 3 2 6 5 4 8 16 9 8 17 28 19 7 18 20 19 17 23 23 24 22 25 17 15 16 17 24 19 17 26 27 23 23 25 24 24
24 5 20 14 14 12 19 5 2 3 3 5 5 7 9 6 8 5 13 20 18 8 16 20 22 17 20 23 26 22 23 16 16 15 16 18 19 7 22 24 26 24 29 27 25
17 2 13 16 13 19 16 2 4 5 3 15 10 12 10 5 9 13 10 17 23 19 14 16 14 18 20 22 23 27 25 16 28 19 15 21 13 9 11 16 24 27 25 26 25
9 5 5 18 10 11 6 4 7 4 5 7 14 2 5 4 5 7 18 18 21 19 7 18 17 20 18 26 28 29 24 23 16 16 15 18 8 14 16 12 12 16 17 19 21
11 3 8 14 11 8 2 6 4 4 4 3 4 6 6 2 9 10 13 14 20 16 21 13 14 21 19 29 28 23 25 12 10 19 15 15 15 14 16 16 15 14 12 16 16
11 6 10 18 11 15 5 6 10 19 14 3 5 5 8 9 6 12 20 11 20 14 12 7 8 19 21 18 31 16 16 12 7 17 11 14 13 20 17 17 13 13 17 21 18
12 6 13 21 10 9 9 16 10 16 19 3 3 6 5 11 6 4 15 15 28 15 16 4 3 18 26 25 26 20 23 16 8 9 11 12 9 17 14 12 17 20 21 17 19
17 7 7 15 6 8 16 13 17 16 13 0 3 7 9 6 3 8 9 13 26 15 7 4 7 15 16 18 19 24 23 11 2 2 17 15 12 11 19 18 18 19 22 24 26
14 7 10 9 8 14 16 16 19 18 8 9 5 9 9 5 1 2 4 7 11 11 11 3 6 19 15 22 20 24 23 16 8 7 12 14 21 18 20 17 18 23 27 30 31
14 7 9 7 11 13 17 19 21 14 7 11 5 13 4 1 2 4 7 14 11 9 11 12 16 22 23 26 25 24 25 17 13 11 10 24 19 20 19 18 22 24 29 31 33
12 9 11 20 18 16 15 20 20 21 8 14 10 21 11 6 8 9 16 8 6 11 12 8 12 20 21 26 26 23 24 19 14 5 20 23 19 22 25 26 22 25 29 29 30
14 13 5 15 15 13 14 19 19 20 6 13 17 8 10 11 18 9 11 4 5 1 9 5 5 3 16 28 22 19 26 19 13 1 20 19 22 21 18 21 23 26 26 28 27
Wind_Direction
347 345 343 340 337 333 327 319 310 301 289 281 279 282 287 297 301 296 268 255 256 244 242 253 252 228 219 226 216 217 232 234 228 229 239 221 178 212 221 225 169 130 24 114 147
347 345 341 338 334 330 327 324 320 314 305 294 282 275 275 288 295 283 268 254 246 245 243 236 232 217 216 217 214 215 225 231 239 235 235 236 187 205 213 212 174 172 133 148 158
347 343 337 333 330 326 324 322 319 315 308 302 295 288 270 285 301 288 243 250 243 237 236 231 236 220 219 217 214 216 229 228 238 242 239 230 201 205 213 212 206 183 167 165 165
346 341 336 331 328 324 321 318 318 316 313 304 301 290 275 267 270 116 334 44 182 212 230 226 229 230 218 218 216 215 225 245 228 244 236 232 221 216 219 215 209 171 151 170 172
345 341 333 331 327 322 317 314 312 309 305 304 303 294 289 242 246 301 290 284 288 259 235 226 222 221 222 219 217 220 224 221 244 237 218 226 229 213 204 225 153 174 166 178 179
345 339 334 329 325 321 317 314 309 306 300 298 293 293 265 260 258 260 256 254 254 261 254 231 225 221 232 224 221 217 223 234 222 236 207 224 227 222 221 215 191 195 194 186 180
343 339 333 329 328 322 317 311 306 296 290 285 281 265 261 245 248 248 254 244 240 246 253 236 217 222 226 223 223 225 218 228 220 214 206 212 227 211 214 215 196 205 202 190 180
341 337 333 329 327 321 313 311 312 303 288 273 265 253 254 267 260 255 241 240 239 223 235 293 244 252 229 229 223 218 212 214 214 208 214 204 218 212 212 199 204 205 194 182 180
340 336 331 328 326 320 311 311 316 309 305 253 241 228 263 277 246 256 236 240 228 216 235 269 254 234 220 214 218 209 214 218 203 204 208 209 226 201 200 212 204 198 195 184 174
339 335 331 327 324 317 317 319 316 303 64 141 203 194 247 256 259 223 230 230 222 220 215 231 224 217 212 208 204 199 212 204 214 188 209 194 227 227 182 206 204 195 200 193 181
339 334 328 324 322 318 327 342 340 229 222 255 242 231 298 219 223 213 209 212 205 215 208 201 209 208 202 209 215 203 204 218 206 189 197 214 207 214 181 204 201 198 196 199 201
341 333 329 329 330 328 330 304 317 299 287 273 260 244 242 274 223 221 221 196 205 207 204 185 222 222 215 212 223 227 189 216 188 186 191 205 204 202 203 204 209 206 198 201 198
343 337 343 351 336 342 323 321 312 304 273 300 219 229 225 222 238 190 202 208 217 211 205 206 213 226 220 204 209 226 205 196 199 160 188 200 213 214 180 202 212 211 203 204 202
346 350 352 344 337 326 2 328 322 331 279 143 182 197 199 211 234 230 200 197 203 235 211 211 211 212 227 210 199 211 208 197 200 166 192 201 204 207 202 197 209 208 209 207 207
349 352 355 360 346 1 321 323 322 250 258 139 120 156 204 196 167 245 212 219 243 241 219 207 216 211 204 218 197 209 186 212 191 183 193 191 231 192 201 197 204 206 205 207 203
348 336 359 352 342 350 323 322 336 236 17 310 140 216 229 230 263 305 220 212 231 253 268 215 185 232 201 210 188 204 189 191 187 186 221 176 220 215 191 199 192 199 204 210 215
346 300 11 12 333 308 329 343 238 301 349 354 312 272 265 215 218 232 195 195 214 170 235 205 183 234 225 191 194 202 190 171 186 196 212 177 200 122 177 194 193 196 204 213 216
353 269 346 352 340 317 331 269 281 6 278 322 318 297 256 214 188 187 236 200 221 202 221 162 207 199 196 206 187 191 190 173 180 185 189 183 196 196 142 179 192 191 197 202 209
24 359 350 354 345 334 350 306 354 325 316 303 302 282 274 160 185 173 210 211 207 218 215 173 205 159 229 204 188 185 197 194 189 188 188 156 171 130 141 150 157 157 172 184 195
358 323 10 356 348 325 311 333 326 225 261 257 285 315 304 308 165 185 187 226 220 211 197 199 164 168 221 203 196 197 202 206 231 185 160 169 175 149 163 159 161 162 169 191 192
5 294 360 356 326 344 339 314 317 325 333 212 307 293 309 325 201 191 189 180 217 203 193 311 169 180 211 189 186 189 221 233 236 202 173 170 172 142 169 173 144 143 132 103 116
348 355 354 4 19 354 335 337 308 327 336 173 280 274 281 317 338 334 162 210 202 197 189 49 202 162 196 187 184 190 200 212 204 170 168 147 97 150 125 119 127 118 112 122 124
347 330 8 9 14 345 330 324 344 342 335 121 262 247 292 289 7 10 58 124 184 195 131 173 230 148 205 192 190 180 198 199 245 279 165 143 135 118 98 93 110 125 131 135 131
344 358 355 346 15 339 334 341 343 348 324 335 293 299 307 292 315 83 138 180 158 94 99 55 268 191 180 178 187 184 182 201 217 187 177 131 138 147 112 125 136 147 146 134 132
17 17 11 322 338 327 356 348 343 358 343 335 309 328 349 46 239 187 175 131 108 129 153 192 214 192 182 179 192 179 177 193 198 192 178 135 150 130 131 144 147 143 135 136 134
9 359 334 293 292 360 358 346 348 355 346 326 325 341 20 20 357 156 129 145 164 224 252 215 166 178 174 179 181 179 174 191 193 149 125 148 126 110 135 140 144 147 142 135 134
7 355 328 292 351 5 351 343 5 359 322 315 332 330 358 352 329 27 70 58 3 28 222 130 130 222 202 163 170 178 177 187 147 107 152 138 123 127 143 145 154 151 141 133 132